User: anonymous   Login
Location: Blue Mountain Vista Observatory
(40.6992°N, 75.9422°W)
Time: 07:50:15
(UTC-04:00)
Language:

CZ-4C R/B - Orbit

View from above orbital plane
View from above orbital plane
View from above satellite
View from above satellite

Ground track
Ground track

The orbit data is extracted from the following two-line orbital elements,

1 36416U 10009D   16144.21107960 -.00000058  00000-0  28699-4 0  9994
2 36416  63.4433 229.4754 0348789 357.4444   2.4800 13.69497143310968
Epoch (UTC): 23 May 2016 05:03:57
Eccentricity: 0.0348789
inclination: 63.4433°
perigee height: 744 km
apogee height: 1259 km
right ascension of ascending node: 229.4754°
argument of perigee: 357.4444°
revolutions per day: 13.69497143
mean anomaly at epoch: 2.4800°
orbit number at epoch: 31096

The dashed part of the orbit path shows where the satellite is in the earth's shadow,  

DLR